FENGYUN 1C DEB

Satellite information

Favourite Embed

Satellite Type and Status

DEBRISIN ORBIT

Key statistics

Satellite FENGYUN 1C DEB at a glance.

Uptime

9714

Days in orbit

Revolutions

≈ 15.3

Per day

Orbit

SSO

Sun Synchronous Orbit

Inclination

98.8

Latest

Satellite identification and parameters

Extended collection of information and parameters for FENGYUN 1C DEB.

Object identification

Identified? True

Debris? True

Object name: FENGYUN 1C DEB

International designator: 1999-025AUA

Object number (NORAD): 30764

Object ID (CCSDS): 30764

Country: PEOPLES REPUBLIC OF CHINA (PRC)

Current information (Y/N): Y

RCS size: SMALL

Orbital parameters

Period: 94.177 minutes

Inclination: 98.778 deg

SMA: 6856.811 km

Apoapsis: 530.829 km

Periapsis: 426.523 km

RAAN: 316.7733 deg

Eccentricy: 0.00760595

Argument of periapsis: 171.8181 deg

Mean anomaly: 188.4316 deg

Mean motion: 15.29042265 rev/day

Mean motion (dot): 0.00047408 rev/day2

B* drag term: 0.0015358089 1/REarth

Two-line elements (TLE)

Creation date: Dec. 12, 2025, 10:14 a.m.

Reference frame: TEME

Reference center: EARTH

Epoch: Dec. 12, 2025, 4:56 a.m. UTC

TLE line 0: 0 FENGYUN 1C DEB

TLE line 1: 1 30764U 99025AUA 25346.20595842 .00047408 00000-0 15358-2 0 9997

TLE line 2: 2 30764 98.7780 316.7733 0076060 171.8181 188.4316 15.29042265 12142

Live tracking on map

Real-time ground track for satellite FENGYUN 1C DEB.

In-orbit conjunctions

A list of the most updated potential collisions computed for object FENGYUN 1C DEB.

Target Orbit TCA Probability of collision Miss distance Type
COSMOS 2242 LEO 2025-04-20 01:20:50 0.0001401641 456.0 (m) PAYLOAD
CZ-6A DEB SSO 2024-11-13 06:11:50 0.0001887793 544.0 (m) DEBRIS

Associated space launch

Chinese polar orbiting meteorological satellite

FENGYUN 1C DEB was lifted into orbit during the mission ‘Long March 4B | Feng Yun 1C’, on board a Long March 4B space rocket.

The launch took place on May 10, 1999, 1:33 a.m. from Launch Complex 7.

For more information about the launch, click the button.

Launch to space Long March 4B | Feng Yun 1C
Long March 4B | Feng Yun 1C

Agency: N/A

Status: Launch Successful

Launch date: May 10, 1999, 1:33 a.m. UTC

Rocket: Long March 4B

Launch pad: Launch Complex 7

Location: Taiyuan Satellite Launch Center, People's Republic of China

...

Latest news about this satellite

There are no fresh news available about this satellite. Check back as we update our databases every day.


Newsletter sign-up

Weekly statistics, charts and insights to help you stay on top of the space industry.